Scottsbluff, NE

2:37 AM MST on February 27, 2017 (GMT -0700)
Heilig

Weather History for KBFF - September, 2012

Change the Weather History Date:

Sunday, September 2, 2012

  Actual Average Record
Temperature  
Mean Temperature 78 °F 68 °F  
Max Temperature 92 °F 84 °F 98 °F (1983)
Min Temperature 64 °F 51 °F 35 °F (1952)
Degree Days  
Heating Degree Days 0 2  
Month to date heating degree days 0 4  
Since 1 July heating degree days 5 24  
Cooling Degree Days 13 4  
Month to date cooling degree days 31 9  
Year to date cooling degree days 1156 674  
Growing Degree Days 28 (Base 50)    
Moisture  
Dew Point 46 °F    
Average Humidity 40    
Maximum Humidity 63    
Minimum Humidity 16    
Precipitation  
Precipitation T in 0.03 in 2.56 in (1951)
Month to date precipitation T 0.07  
Year to date precipitation 4.85 12.37  
Snow  
Snow 0.00 in 0.00 in - ()
Month to date snowfall 0.0 0.0  
Since 1 July snowfall 0.0 0.0  
Snow Depth 0.00 in    
Sea Level Pressure  
Sea Level Pressure 29.89 in    
Wind  
Wind Speed 9 mph (WNW)    
Max Wind Speed 20 mph    
Max Gust Speed 24 mph    
Visibility 10 miles    
Events Rain    
T = Trace of Precipitation, MM = Missing Value Source: NWS Daily Summary

Daily Weather History Graph

Daily Weather History Graph

Search for Another Location

Airport or City:

Trip Planner

Search our weather history database for the weather conditions in past years. The results will help you decide how hot, cold, wet, or windy it might be!

Date:

Astronomy

Sep. 02, 2012 Rise Set
Actual Time 6:21 AM MDT 7:25 PM MDT
Civil Twilight 5:53 AM MDT 7:53 PM MDT
Nautical Twilight 5:19 AM MDT 8:27 PM MDT
Astronomical Twilight 4:43 AM MDT 9:03 PM MDT
Moon 8:10 PM MDT (9/2) 8:35 AM MDT (9/2)
Length of Visible Light 14h 00m
Length of Day
13h 03m
Waning Gibbous, 95% of the Moon is Illuminated
Sep 2
Waning Gibbous
Sep 8
Last Quarter
Sep 15
New
Sep 22
First Quarter
Sep 29
Full

Hourly Weather History & Observations

Time (MDT) Temp. Dew Point Humidity Pressure Visibility Wind Dir Wind Speed Gust Speed Precip Events Conditions
12:53 AM 71.1 °F 50.0 °F 47% 29.83 in 10.0 mi NW 8.1 mph - N/A   Clear
1:53 AM 66.9 °F 51.1 °F 57% 29.84 in 10.0 mi West 6.9 mph - N/A   Clear
2:53 AM 69.1 °F 52.0 °F 54% 29.86 in 10.0 mi West 10.4 mph - N/A   Partly Cloudy
3:53 AM 68.0 °F 53.1 °F 59% 29.87 in 10.0 mi WNW 6.9 mph - 0.00 in Rain Light Rain
4:53 AM 66.0 °F 53.1 °F 63% 29.87 in 10.0 mi WNW 4.6 mph - 0.00 in   Clear
5:53 AM 66.9 °F 52.0 °F 59% 29.89 in 10.0 mi WNW 11.5 mph - N/A   Clear
6:53 AM 64.9 °F 52.0 °F 63% 29.92 in 10.0 mi WNW 9.2 mph - N/A   Clear
7:53 AM 69.1 °F 52.0 °F 54% 29.94 in 10.0 mi WNW 8.1 mph - N/A   Clear
8:53 AM 73.9 °F 53.1 °F 48% 29.93 in 10.0 mi WNW 9.2 mph - N/A   Clear
9:53 AM 81.0 °F 48.9 °F 33% 29.94 in 10.0 mi WNW 18.4 mph - N/A   Clear
10:53 AM 84.0 °F 48.0 °F 28% 29.94 in 10.0 mi NW 15.0 mph 20.7 mph N/A   Clear
11:53 AM 86.0 °F 45.0 °F 24% 29.92 in 10.0 mi WNW 12.7 mph - N/A   Clear
12:53 PM 87.8 °F 44.6 °F 22% 30.06 in 10.0 mi NW 9.2 mph 16.1 mph N/A   Clear
1:53 PM 89.1 °F 41.0 °F 19% 29.90 in 10.0 mi WNW 11.5 mph - N/A   Clear
2:53 PM 90.0 °F 39.0 °F 17% 29.87 in 10.0 mi NNW 11.5 mph - N/A   Clear
3:53 PM 91.0 °F 39.0 °F 16% 29.86 in 10.0 mi NW 3.5 mph - N/A   Clear
4:53 PM 90.0 °F 39.9 °F 17% 29.85 in 10.0 mi NNW 6.9 mph - N/A   Clear
5:53 PM 88.0 °F 37.9 °F 17% 29.86 in 10.0 mi West 4.6 mph - N/A   Partly Cloudy
6:53 PM 84.0 °F 43.0 °F 24% 29.87 in 10.0 mi SSE 6.9 mph - N/A   Mostly Cloudy
7:53 PM 81.0 °F 45.0 °F 28% 29.88 in 10.0 mi South 8.1 mph - N/A   Clear
8:53 PM 80.1 °F 42.1 °F 26% 29.88 in 10.0 mi South 9.2 mph - N/A   Partly Cloudy
9:53 PM 77.0 °F 46.0 °F 33% 29.87 in 10.0 mi SSW 8.1 mph - 0.00 in   Clear
10:53 PM 75.0 °F 45.0 °F 34% 29.86 in 10.0 mi West 3.5 mph - N/A   Clear
11:53 PM 73.9 °F 46.0 °F 37% 29.87 in 10.0 mi East 5.8 mph - N/A   Partly Cloudy